This is the latest recevied weather packets stored in our database for station/object AJ1L. If no packets are shown the sender has not sent any weather packets the latest 10 day(s).
| Time | Temp. | Humidity | Pressure | Rain* | Wind** | Luminosity | Snow |
|---|---|---|---|---|---|---|---|
| 1777919647 | 21.11° C | 29% | 1007.8 hPa | 0 mm | - | - | - |
| 1777917647 | 21.11° C | 29% | 1007.9 hPa | 0 mm | - | - | - |
| 1777915653 | 20.56° C | 29% | 1007.8 hPa | 0 mm | - | - | - |
| 1777914647 | 20.56° C | 31% | 1007.9 hPa | 0 mm | - | - | - |
| 1777913647 | 20.56° C | 30% | 1008.2 hPa | 0 mm | - | - | - |
| 1777912647 | 20° C | 30% | 1008.7 hPa | 0 mm | - | - | - |
| 1777911647 | 20° C | 32% | 1008.6 hPa | 0 mm | - | - | - |
| 1777909647 | 18.89° C | 33% | 1009.2 hPa | 0 mm | - | - | - |
| 1777908647 | 18.89° C | 34% | 1009.3 hPa | 0 mm | - | - | - |
| 1777907647 | 18.33° C | 34% | 1009.4 hPa | 0 mm | - | - | - |
| 1777906647 | 18.89° C | 33% | 1009.5 hPa | 0 mm | - | - | - |
| 1777905647 | 18.33° C | 34% | 1009.6 hPa | 0 mm | - | - | - |
| 1777904647 | 18.33° C | 35% | 1009.9 hPa | 0 mm | - | - | - |
| 1777903647 | 17.78° C | 37% | 1010.2 hPa | 0 mm | - | - | - |
| 1777902647 | 17.22° C | 39% | 1010.4 hPa | 0 mm | - | - | - |
| 1777901647 | 16.11° C | 41% | 1010.6 hPa | 0 mm | - | - | - |
| 1777900647 | 15° C | 44% | 1010.7 hPa | 0 mm | - | - | - |
| 1777899647 | 13.89° C | 46% | 1010.8 hPa | 0 mm | - | - | - |
| 1777898647 | 12.78° C | 48% | 1011 hPa | 0 mm | - | - | - |
| 1777896647 | 11.67° C | 51% | 1010.9 hPa | 0 mm | - | - | - |
| 1777895647 | 10° C | 54% | 1011 hPa | 0 mm | - | - | - |
| 1777893647 | 7.78° C | 59% | 1011.1 hPa | 0 mm | - | - | - |
| 1777892647 | 7.78° C | 60% | 1011.1 hPa | 0 mm | - | - | - |
| 1777891646 | 7.78° C | 60% | 1011.2 hPa | 0 mm | - | - | - |
| 1777890647 | 7.22° C | 60% | 1011.1 hPa | 0 mm | - | - | - |
* Rain latest hour (hover to see other rain measurements)
** Current wind speed in m/s (hover to see current wind gust speed)